星链-1821 (STARLINK-1821 )

导读 | 豆包AI

STARLINK-1821是美国SpaceX公司星链星座的卫星,于2020年10月18日发射入轨,星链系统旨在为全球提供覆盖广泛的低延迟互联网服务,该卫星作为星座组网单元,运行在近地轨道,属于SpaceX批量部署的星链卫星之一,服务全球卫星互联网通信网络构建。

基本信息
目录编号:
46718
目录名称:
STARLINK-1821
国际标识:
2020-073BA
轨道中心:
EARTH
卫星名称:
星链-1821
卫星全名:
星链-1821 (STARLINK-1821 )
卫星状态:
在轨 (已飞行1973 天)
发射日期:
2020-10-18 UTC
国别 :
美国 (US)
星等 :
--
轨道信息
数据来源 国际轨道数据 AOE轨道数据
星历时间 2026-03-12T23:41:15+0800
1天前
查看轨道信息
2026-03-10T09:00:00+0800
4天前
查看轨道信息
半长轴 6828.711km 6830.178km
偏心率 0.0002754 0.0006089
轨道倾角 53.049° 53.061°
近地点辐角 172.494° 148.263°
升交点赤经 212.604° 224.914°
平近点角 187.610° 138.902°
近地点 448.693km 447.882km
远地点 452.455km 456.2km
周期 93.598分钟 93.628分钟
每日圈数 15.384901 15.379945
详细信息
固有亮度:
5
最大亮度:
2.5
卫星平台:
Starlink V1.0
覆盖范围:
全球
运营商:
太空探索技术公司
运营商所在国:
美国
制造商(研发单位):
太空探索技术公司
制造商所在国:
美国
使用方式:
暂无
卫星简介
星链(Starlink)计划是由太空探索技术公司(SpaceX)提出的一个巨型低轨卫星互联网星座项目,计划在2019年至2024年间在太空搭建由约1.2万颗卫星组成的“星链”网络,其中1584颗将部署在地球上空550千米处的近地轨道,并从2020年开始工作。该卫星仍在工作。
2D轨道图
3D轨道图
轨道高度分析图
轨道倾角分析图
轨道综合分析图
查看轨道综合分析图